Location: Recife
(8.0585°S, 34.8848°W)
Time: 11:54:22
(UTC-03:00)

Vanguard 2 Rocket - Pass Details

Date: 14 April 2026
Orbit: 553 x 3286 km, 32.9° (Epoch: 7 May)

Event Time Altitude Azimuth Distance (km) Brightness Sun altitude
Rises 08:18:04 0° 250° (WSW) 4,852 10.2 41.4°
Reaches altitude 10° 08:21:37 10° 238° (WSW) 4,255 10.0 42.3°
Maximum altitude 08:31:41 27° 184° (S) 3,948 10.2 44.6°
Drops below altitude 10° 08:45:54 10° 132° (SE) 6,042 11.4 47.8°
Sets 08:52:27 0° 121° (ESE) 7,235 11.8 49.3°
